Overview Statistics Trail Chart Weather Telemetry Raw packets
 

This is the latest recevied weather packets stored in our database for station/object NO9B. If no packets are shown the sender has not sent any weather packets the latest 10 day(s).

<< 56 57 58 59 60 61 62 >>
Time Temp. Humidity Pressure Rain* Wind** Luminosity Snow
1788281381 30.56° C 81% 1015.8 hPa 0 mm - 542 W/m² -
1788281076 30.56° C 81% 1015.7 hPa 0 mm - 495 W/m² -
1788280771 30° C 82% 1015.9 hPa 0 mm - 576 W/m² -
1788280466 30° C 84% 1015.9 hPa 0 mm - 503 W/m² -
1788280165 29.44° C 83% 1015.7 hPa 0 mm - 136 W/m² -
1788279860 29.44° C 85% 1015.6 hPa 0 mm - 181 W/m² -
1788279560 29.44° C 84% 1015.9 hPa 0 mm - 100 W/m² -
1788279259 29.44° C 83% 1015.9 hPa 0 mm - 60 W/m² -
1788278954 29.44° C 84% 1016.1 hPa 0 mm - 145 W/m² -
1788278650 28.89° C 85% 1016.3 hPa 0 mm - 153 W/m² -
1788278349 28.89° C 86% 1016.4 hPa 0 mm - 124 W/m² -
1788278044 29.44° C 85% 1016.2 hPa 0 mm - 57 W/m² -
1788277741 29.44° C 84% 1016.1 hPa 0 mm - 46 W/m² -
1788277439 29.44° C 85% 1016 hPa 0 mm - 97 W/m² -
1788277135 29.44° C 84% 1016.1 hPa 0 mm - 100 W/m² -
1788276835 29.44° C 83% 1016 hPa 0 mm - 108 W/m² -
1788276534 29.44° C 84% 1016.2 hPa 0 mm - 89 W/m² -
1788276229 29.44° C 84% 1016 hPa 0 mm - 69 W/m² -
1788275924 29.44° C 83% 1015.8 hPa 0 mm - 74 W/m² -
1788275624 29.44° C 82% 1015.9 hPa 0 mm - 89 W/m² -
1788275323 29.44° C 82% 1015.9 hPa 0 mm - 82 W/m² -
1788275021 28.89° C 84% 1015.9 hPa 0 mm - 107 W/m² -
1788274719 28.89° C 85% 1015.9 hPa 0 mm - 82 W/m² -
1788274419 28.89° C 85% 1015.9 hPa 0 mm - 103 W/m² -
1788274114 28.33° C 85% 1016 hPa 0 mm - 95 W/m² -

* Rain latest hour (hover to see other rain measurements)
** Current wind speed in m/s (hover to see current wind gust speed)